ATLAS 5 CENTAUR DEB, 52828

Orbit data source: Space-Track

ATLAS 5 CENTAUR DEB, 52828 is space debris in HEO originally from a launch on Wed, 17 Sep 2014 UTC launched from the Air Force Eastern Test Range (AFETR). Debris objects in space refer to the collection of defunct objects orbiting the Earth. Examples of debris include non-operational satellites, rocket bodies, and fragments generated from explosions, collisions, or faulty payload assembly.

Loading next visibility...
Identifier
52828, 2014-055DL
Orbit
HEO
Country
Flag of USUS
Related business
Flag of USUnited Launch Alliance/Lockheed Martin (US)
Manufacturer
Unknown
Mission
Spacecraft
Bus & Motor
Unknown
Mass
Unknown
Launch date (UTC)
2014-09-17 (11 years ago)
Launch vehicle
Unknown
Launch site
Air Force Eastern Test Range (AFETR)
Object type
Payload
Rocket body
Debris
Shape & HBR
Unknown shape, 1.1 m
Radar Cross Section
RCS unknown

Expand to show TLE details & history
Last TLE update: 4 days ago

TLE from 4 days ago
0 ATLAS 5 CENTAUR DEB
1 52828U 14055DL  26020.18658360  .00000003  00000-0  00000-0 0  9990
2 52828  19.3144 184.2125 4723638  94.5786 318.8276  1.81209544 24380
Epoch: 2026-01-20T04:28Z
TLE epoch observation values (Epoch: 2026-01-20T04:28:40.823Z)
Latitude
-0.00001°
Longitude
-2.62042°
Altitude
16,571.832 km
Speed
4.551 km/s
True Right ascension
12h 16m 29s
True Declination
0° 00' 00"
Sunlit
Object was in daylight at epoch
Visualization orbit readout
Latitude
Unknown
Longitude
Unknown
Altitude
Unknown
Speed
Unknown
Apparent Right ascension
Unknown
Apparent Declination
Unknown
Sunlit
N/A
Visualization observer readout
Local Sidereal Time
04:10:18
Azimuth
Unknown
Elevation
Unknown
Doppler factor
Unknown
Orbital elements
Apogee altitude
35,468.327 km
Perigee altitude
8,617.959 km
Semi-major axis
28,421.28 km
Eccentricity
0.47236
Inclination
19.3144°
RAAN
184.2125°
Arg. of periapsis
94.5786°
True anomaly
265.47972°
Mean anomaly
318.8276°
Eccentric anomaly
294.12756°
Mean motion
0.45298 °/min
Orbital period
794.74 mins
BSTAR
0
Loading maneuver chart data...
Computing Atmospheric mass density...

Documentation

Showing up to 5 results
|